Tracking 22881 objects as of 20-Apr-2021
HD Live streaming from Space Station
objects crossing your sky now

STARLINK-2319

Track STARLINK-2319 now!
10-day predictions
STARLINK-2319 is classified as:


NORAD ID: 47790
Int'l Code: 2021-018D
Perigee: 356.3 km
Apogee: 357.7 km
Inclination: 53.0 °
Period: 91.5 minutes
Semi major axis: 6727 km
RCS: Unknown
Launch date: March 11, 2021
Source: United States (US)
Launch site: AIR FORCE EASTERN TEST RANGE (AFETR)
aabbcc
Your satellite tracking list
Your tracking list is empty




NASA's NSSDC Master Catalog

Two Line Element Set (TLE):
1 47790U 21018D   21109.58334491  .00054540  00000-0  39102-3 0  9995
2 47790  53.0484 353.0450 0001074  91.8889 293.7234 15.73164847  1779
Source of the keplerian elements: AFSPC